Regional Weather Roundup
Issued by NWS

Home | Current Version | Previous Version | Text Only | Print | Product List | Glossary Off
Versions: 1 2 3 4 5 6 7 8 9 10 11 12 13 14 15 16 17 18 19 20 21 22 23 24 25 26 27 28 29 30 31 32 33 34 35 36 37 38 39 40 41 42 43 44 45 46 47 48 49 50

000
ASUS43 KLSX 061407
RWRMO

WEATHER SUMMARY FOR MISSOURI
NATIONAL WEATHER SERVICE SPRINGFIELD MO
900 AM CDT MON JUL 06 2015

NOTE: "FAIR" INDICATES FEW OR NO CLOUDS BELOW 12,000 FEET WITH NO
       SIGNIFICANT WEATHER AND/OR OBSTRUCTIONS TO VISIBILITY.
       CURRENT SKY AND/OR WEATHER CONDITIONS ARE NOT AVAILABLE FOR
       CHILLICOTHE AND FARMINGTON.

MOZ001>031-035>038-043-044-053-054-061500-
...NORTHERN AND WESTERN MISSOURI...

CITY           SKY/WX    TMP DP  RH WIND       PRES   REMARKS
KANSAS CTY INT CLOUDY    78  72  81 S14       29.92S
KANSAS C DTWN  PTSUNNY   79  71  76 S9        29.91S
LEE`S SUMMIT   PTSUNNY   77  70  79 S9        29.95R
ST JOSEPH      CLOUDY    78  72  81 S6        29.90R
CHILLICOTHE      N/A     77  71  82 S6        29.94R
KIRKSVILLE     CLOUDY    75  69  81 S10       29.96R

$$
MOZ066>068-077>081-088>096-101>105-061500-
...SOUTHWEST MISSOURI...

CITY           SKY/WX    TMP DP  RH WIND       PRES   REMARKS
SPRINGFIELD    PTSUNNY   76  71  85 S14       30.02S
JOPLIN         LGT RAIN  79  72  79 S16G23    29.99S

$$
MOZ032>034-039>042-045>050-055>058-069>072-061500-
...CENTRAL MISSOURI...

CITY           SKY/WX    TMP DP  RH WIND       PRES   REMARKS
COLUMBIA       CLOUDY    78  73  84 S12       29.99R
JEFFERSON CITY CLOUDY    79  72  79 SW7       29.98R
ROLLA          PTSUNNY   78  72  81 S15       30.02R
SEDALIA        CLOUDY    78  71  79 SW10      29.98R
OSAGE BEACH    CLOUDY    81  72  74 SW9       30.00S

$$
MOZ051-052-059>065-061500-
...EAST CENTRAL MISSOURI...

CITY           SKY/WX    TMP DP  RH WIND       PRES   REMARKS
ST LOUIS INTL  PTSUNNY   82  72  71 VRB7      30.02R
SPIRIT OF STL  MOSUNNY   80  74  81 S5        30.00S
ST CHARLES     MOSUNNY   80  74  81 S8        30.00R

$$
MOZ072>076-082>087-097>100-106>115-061500-
...SOUTH CENTRAL AND SOUTHEAST MISSOURI...

CITY           SKY/WX    TMP DP  RH WIND       PRES   REMARKS
CAPE GIRARDEAU CLOUDY    75  71  87 S8        30.08S
FARMINGTON     CLOUDY    73  72  94 S9        30.10S
POPLAR BLUFF   CLOUDY    74  70  87 S12       30.07S
WEST PLAINS    CLOUDY    74  69  85 SE7       30.09S

$$


USA.gov is the U.S. government's official web portal to all federal, state and local government web resources and services.